Florence, SC

1:34 AM EDT on September 22, 2017 (GMT -0400)
Florence Regional

Weather History for KFLO - October, 2013

Change the Weather History Date:

Thursday, October 17, 2013

  Actual Average Record
Temperature  
Mean Temperature 71 °F 64 °F  
Max Temperature 83 °F 75 °F 87 °F (1953)
Min Temperature 59 °F 53 °F 39 °F (1982)
Degree Days  
Heating Degree Days 0 3  
Month to date heating degree days 3 37  
Since 1 July heating degree days 3 46  
Cooling Degree Days 6 2  
Month to date cooling degree days 95 62  
Year to date cooling degree days 2020 2018  
Growing Degree Days 20 (Base 50)    
Moisture  
Dew Point 62 °F    
Average Humidity 76    
Maximum Humidity 97    
Minimum Humidity 54    
Precipitation  
Precipitation 0.00 in 0.10 in 2.64 in (1999)
Month to date precipitation 0.68 1.85  
Year to date precipitation 48.03 36.00  
Sea Level Pressure  
Sea Level Pressure 29.93 in    
Wind  
Wind Speed 5 mph (SW)    
Max Wind Speed 15 mph    
Max Gust Speed 18 mph    
Visibility 8 miles    
Events Fog    
T = Trace of Precipitation, MM = Missing Value Source: NWS Daily Summary

Daily Weather History Graph

Daily Weather History Graph

Search for Another Location

Airport or City:

Trip Planner

Search our weather history database for the weather conditions in past years. The results will help you decide how hot, cold, wet, or windy it might be!

Date:

Astronomy

Oct. 17, 2013 Rise Set
Actual Time 7:25 AM EDT 6:41 PM EDT
Civil Twilight 7:00 AM EDT 7:07 PM EDT
Nautical Twilight 6:31 AM EDT 7:36 PM EDT
Astronomical Twilight 6:02 AM EDT 8:05 PM EDT
Moon 5:53 PM EDT (10/17) 5:59 AM EDT (10/17)
Length of Visible Light 12h 06m
Length of Day
11h 15m
Waxing Gibbous, 98% of the Moon is Illuminated
Oct 17
Waxing Gibbous
Oct 18
Full
Oct 26
Last Quarter
Nov 3
New
Nov 10
First Quarter

Hourly Weather History & Observations

Time (EDT) Temp. Heat Index Dew Point Humidity Pressure Visibility Wind Dir Wind Speed Gust Speed Precip Events Conditions
12:53 AM 61.0 °F - 59.0 °F 93% 29.98 in 10.0 mi Calm Calm - N/A   Clear
1:53 AM 60.1 °F - 57.9 °F 93% 29.97 in 10.0 mi Calm Calm - N/A   Clear
2:53 AM 61.0 °F - 59.0 °F 93% 29.96 in 6.0 mi Calm Calm - N/A   Clear
3:53 AM 61.0 °F - 59.0 °F 93% 29.95 in 9.0 mi Calm Calm - N/A   Clear
4:53 AM 60.1 °F - 57.0 °F 90% 29.94 in 10.0 mi Calm Calm - N/A   Clear
5:17 AM 59.0 °F - 57.2 °F 94% 29.96 in 1.8 mi Calm Calm - N/A   Clear
5:27 AM 59.0 °F - 57.2 °F 94% 29.96 in 0.5 mi Calm Calm - N/A Fog Fog
5:34 AM 60.8 °F - 57.2 °F 88% 29.95 in 2.5 mi South 3.5 mph - N/A   Clear
5:41 AM 59.0 °F - 57.2 °F 94% 29.96 in 9.0 mi Calm Calm - N/A   Clear
5:53 AM 59.0 °F - 57.0 °F 93% 29.96 in 9.0 mi West 3.5 mph - N/A   Clear
6:53 AM 61.0 °F - 59.0 °F 93% 29.96 in 7.0 mi Calm Calm - N/A   Clear
7:53 AM 61.0 °F - 59.0 °F 93% 29.97 in 5.0 mi WSW 3.5 mph - N/A   Clear
8:53 AM 66.0 °F - 63.0 °F 90% 29.98 in 8.0 mi SW 5.8 mph - N/A   Clear
9:53 AM 70.0 °F - 64.0 °F 81% 29.98 in 10.0 mi SW 5.8 mph - N/A   Clear
10:53 AM 73.9 °F - 64.9 °F 73% 29.98 in 10.0 mi SW 12.7 mph - N/A   Partly Cloudy
11:53 AM 77.0 °F - 64.9 °F 66% 29.96 in 10.0 mi SSW 10.4 mph - N/A   Partly Cloudy
12:33 PM 78.8 °F - 64.4 °F 61% 29.96 in 10.0 mi SSW 11.5 mph - N/A   Mostly Cloudy
12:53 PM 80.1 °F 81.9 °F 64.9 °F 60% 29.94 in 10.0 mi SW 6.9 mph - N/A   Scattered Clouds
1:53 PM 80.1 °F 81.7 °F 64.0 °F 58% 29.91 in 10.0 mi SW 9.2 mph - N/A   Mostly Cloudy
2:53 PM 80.1 °F 81.5 °F 63.0 °F 56% 29.89 in 10.0 mi SW 4.6 mph - N/A   Partly Cloudy
3:53 PM 81.0 °F 82.2 °F 63.0 °F 54% 29.88 in 10.0 mi WSW 6.9 mph - N/A   Scattered Clouds
4:53 PM 80.1 °F 81.5 °F 63.0 °F 56% 29.87 in 10.0 mi SW 6.9 mph - N/A   Partly Cloudy
5:53 PM 80.1 °F 81.7 °F 64.0 °F 58% 29.87 in 10.0 mi SSW 5.8 mph - N/A   Partly Cloudy
6:53 PM 75.9 °F - 64.9 °F 69% 29.88 in 10.0 mi South 4.6 mph - N/A   Overcast
7:53 PM 75.0 °F - 66.0 °F 73% 29.88 in 10.0 mi South 4.6 mph - N/A   Overcast
8:53 PM 73.9 °F - 64.9 °F 73% 29.89 in 10.0 mi West 5.8 mph - N/A   Mostly Cloudy
9:53 PM 73.0 °F - 66.0 °F 79% 29.90 in 10.0 mi Calm Calm - N/A   Overcast
10:53 PM 71.1 °F - 64.9 °F 81% 29.91 in 10.0 mi South 4.6 mph - N/A   Overcast
11:53 PM 72.0 °F - 66.0 °F 81% 29.91 in 10.0 mi SSW 3.5 mph - N/A   Overcast